EW9729 Weather Reports


time (UTC)temp
F
wind
direction
speed
knots
gust
knots
rain 1hr
in
rain 24hr
in
rain mn
in
humidity
%
barometer
mb
20260505194517 84 135 3.5 6.1 0.00 0.00 0.00 70 1006.0
20260505193517 83 180 2.6 4.3 0.00 0.00 0.00 71 1005.9
20260505192517 83 225 3.5 9.6 0.00 0.00 0.00 70 1006.0
20260505191517 82 158 1.7 3.5 0.00 0.00 0.00 72 1006.0
20260505190517 82 203 6.1 10.4 0.00 0.00 0.00 71 1006.2
20260505185517 81 203 2.6 5.2 0.00 0.00 0.00 73 1006.3
20260505184517 81 180 2.6 5.2 0.00 0.00 0.00 73 1006.3
20260505183516 81 158 1.7 2.6 0.00 0.00 0.00 74 1006.3
20260505182517 81 225 1.7 3.5 0.00 0.00 0.00 73 1006.4
20260505181518 80 225 1.7 2.6 0.00 0.00 0.00 74 1006.5
20260505180517 80 248 3.5 5.2 0.00 0.00 0.00 74 1006.6
20260505175517 81 203 3.5 7.0 0.00 0.00 0.00 73 1006.5
20260505174517 81 180 3.5 6.1 0.00 0.00 0.00 72 1006.7
20260505173517 80 180 3.5 7.0 0.00 0.00 0.00 73 1006.5
20260505172537 80 180 1.7 2.6 0.00 0.00 0.00 75 1006.5
20260505171517 80 203 1.7 3.5 0.00 0.00 0.00 74 1006.7
20260505170517 79 248 1.7 3.5 0.00 0.00 0.00 76 1006.8
20260505165517 79 180 5.2 9.6 0.00 0.00 0.00 74 1006.7
20260505164516 78 180 2.6 4.3 0.00 0.00 0.00 75 1006.7
20260505163517 79 225 3.5 5.2 0.00 0.00 0.00 76 1006.5
20260505162517 78 225 6.1 12.2 0.00 0.00 0.00 75 1006.4
20260505161517 78 135 3.5 5.2 0.00 0.00 0.00 76 1006.4
20260505160517 77 180 2.6 4.3 0.00 0.00 0.00 79 1006.3
20260505152537 75 203 3.5 6.1 0.00 0.00 0.00 80 1006.5
20260505151516 75 203 1.7 2.6 0.00 0.00 0.00 81 1006.7
20260505150516 75 180 3.5 6.1 0.00 0.00 0.00 81 1006.6
20260505140517 73 180 1.7 2.6 0.00 0.00 0.00 83 1006.4
20260505124516 72 203 1.7 2.6 0.00 0.00 0.00 84 1006.0
20260505123516 72 203 3.5 7.8 0.00 0.00 0.00 84 1005.9
20260505122516 72 180 1.7 3.5 0.00 0.00 0.00 84 1005.8
20260505121516 71 180 2.6 6.1 0.00 0.00 0.00 84 1005.9
20260505120517 71 270 2.6 4.3 0.00 0.00 0.00 84 1005.7
20260505115516 71 203 1.7 3.5 0.00 0.00 0.00 85 1005.7
20260505114536 71 180 3.5 7.0 0.00 0.00 0.00 85 1005.6
20260505113536 71 158 1.7 2.6 0.00 0.00 0.00 84 1005.5
20260505112516 71 203 2.6 5.2 0.00 0.00 0.00 85 1005.6
20260505111516 71 203 2.6 4.3 0.00 0.00 0.00 85 1005.8
20260505110516 71 180 0.9 2.6 0.00 0.00 0.00 85 1005.6
20260505101536 71 203 2.6 3.5 0.00 0.00 0.00 84 1005.7
20260505100516 71 203 1.7 2.6 0.00 0.00 0.00 84 1005.8
20260505095516 71 203 1.7 3.5 0.00 0.00 0.00 84 1006.1
20260505094516 71 180 2.6 3.5 0.00 0.00 0.00 84 1006.1
20260505093516 71 248 1.7 4.3 0.00 0.00 0.00 84 1006.2
20260505092516 71 203 2.6 6.1 0.00 0.00 0.00 84 1006.2
20260505091516 71 203 1.7 2.6 0.00 0.00 0.00 84 1006.2
20260505090516 71 225 2.6 7.0 0.00 0.00 0.00 84 1006.2
20260505085516 71 180 2.6 3.5 0.00 0.00 0.00 84 1006.0
20260505084516 71 180 2.6 5.2 0.00 0.00 0.00 84 1006.1
20260505083516 71 180 2.6 5.2 0.00 0.00 0.00 84 1006.1
20260505082516 71 180 4.3 8.7 0.00 0.00 0.00 84 1006.2
20260505081536 71 203 1.7 3.5 0.00 0.00 0.00 84 1006.1
20260505080516 71 180 1.7 3.5 0.00 0.00 0.00 84 1006.3
20260505075516 71 203 2.6 4.3 0.00 0.00 0.00 84 1006.5
20260505074516 71 158 2.6 3.5 0.00 0.00 0.00 84 1006.6
20260505073516 71 203 4.3 6.1 0.00 0.00 0.00 84 1006.7
20260505072516 71 158 3.5 5.2 0.00 0.00 0.00 83 1006.9
20260505071516 71 0 1.7 2.6 0.00 0.00 0.00 83 1006.9
20260505070516 71 0 3.5 7.0 0.00 0.00 0.00 82 1007.1
20260505065536 71 0 2.6 5.2 0.00 0.00 0.00 82 1007.1
20260505064516 71 0 2.6 5.2 0.00 0.00 0.00 82 1007.2
20260505063518 71 225 2.6 4.3 0.00 0.00 0.00 82 1007.2
20260505062558 72 0 1.7 2.6 0.00 0.00 0.00 81 1007.2
20260505061518 72 203 2.6 4.3 0.00 0.00 0.00 81 1007.4
20260505060518 72 90 1.7 2.6 0.00 0.00 0.00 80 1007.5
20260505055518 72 68 2.6 4.3 0.00 0.00 0.00 80 1007.4
20260505054518 72 203 1.7 3.5 0.00 0.00 0.00 79 1007.5
20260505053518 72 90 1.7 2.6 0.00 0.00 0.00 79 1007.6
20260505052538 72 135 2.6 3.5 0.00 0.00 0.00 79 1007.6
20260505051516 72 135 3.5 9.6 0.00 0.00 0.00 78 1007.8
20260505050518 72 203 2.6 3.5 0.00 0.00 0.00 78 1007.7
20260505041516 73 158 1.7 2.6 0.00 0.00 0.00 75 1008.1
20260505040536 73 158 1.7 3.5 0.00 0.00 0.00 76 1008.1
20260505035536 73 225 0.9 1.7 0.00 0.00 0.00 75 1007.9
20260505034516 73 90 0.9 1.7 0.00 0.00 0.00 74 1007.9
20260505033518 74 68 1.7 4.3 0.00 0.00 0.00 73 1007.9
20260505032518 73 180 1.7 2.6 0.00 0.00 0.00 73 1007.9
20260505031518 73 135 1.7 2.6 0.00 0.00 0.00 73 1008.0
20260505030518 74 135 0.9 1.7 0.00 0.00 0.00 73 1007.9
20260505025516 74 135 0.9 1.7 0.00 0.00 0.00 73 1007.9
20260505024518 74 180 0.9 1.7 0.00 0.00 0.00 72 1007.9
20260505023518 74 248 0.9 1.7 0.00 0.00 0.00 72 1007.6
20260505022518 74 0 0.9 3.5 0.00 0.00 0.00 71 1007.8
20260505021517 74 0.0 0.9 0.00 0.00 0.00 71 1007.7
20260505020538 74 270 1.7 3.5 0.00 0.00 0.00 70 1007.4
20260505015538 75 158 1.7 6.1 0.00 0.00 0.00 70 1007.5
20260505014518 75 68 0.9 1.7 0.00 0.00 0.00 69 1007.7
20260505013518 75 135 1.7 2.6 0.00 0.00 0.00 69 1007.5
20260505012517 75 158 0.9 1.7 0.00 0.00 0.00 68 1007.4
20260505011518 75 113 1.7 7.0 0.00 0.00 0.00 68 1007.5
20260505010518 76 0.0 0.9 0.00 0.00 0.00 67 1007.5
20260505005517 76 158 1.7 3.5 0.00 0.00 0.00 66 1007.6
20260505004517 76 135 1.7 2.6 0.00 0.00 0.00 66 1007.6
20260505003518 77 90 2.6 5.2 0.00 0.00 0.00 65 1007.4
20260505002518 77 180 3.5 7.0 0.00 0.00 0.00 64 1007.6
20260505001517 78 135 1.7 3.5 0.00 0.00 0.00 64 1007.7
20260505000558 78 248 1.7 3.5 0.00 0.00 0.00 63 1007.7
20260504235538 78 158 1.7 2.6 0.00 0.00 0.00 62 1007.8
20260504234517 78 180 2.6 5.2 0.00 0.00 0.00 62 1007.8
20260504233517 78 203 2.6 4.3 0.00 0.00 0.00 62 1007.9
20260504232517 79 203 2.6 6.1 0.00 0.00 0.00 61 1007.8
20260504231517 79 203 2.6 7.0 0.00 0.00 0.00 59 1008.1
20260504230517 80 203 1.7 3.5 0.00 0.00 0.00 59 1008.2
20260504225517 79 158 2.6 6.1 0.00 0.00 0.00 59 1008.4
20260504224517 80 158 3.5 6.1 0.00 0.00 0.00 58 1008.3
20260504223518 80 158 3.5 7.8 0.00 0.00 0.00 59 1008.2
20260504222518 80 135 4.3 10.4 0.00 0.00 0.00 58 1008.4
20260504221517 80 225 2.6 5.2 0.00 0.00 0.00 59 1008.4
20260504220537 80 135 2.6 4.3 0.00 0.00 0.00 58 1008.6
20260504215518 81 135 2.6 5.2 0.00 0.00 0.00 58 1008.7
20260504214517 80 248 0.9 1.7 0.00 0.00 0.00 58 1008.8
20260504213537 80 203 2.6 5.2 0.00 0.00 0.00 56 1009.0
20260504212517 80 248 2.6 3.5 0.00 0.00 0.00 56 1009.3
20260504211517 80 158 1.7 3.5 0.00 0.00 0.00 57 1009.4
20260504210517 80 225 2.6 5.2 0.00 0.00 0.00 55 1009.6
20260504205518 80 135 1.7 3.5 0.00 0.00 0.00 56 1009.8
20260504204517 80 203 1.7 2.6 0.00 0.00 0.00 55 1010.0
20260504203517 80 158 2.6 4.3 0.00 0.00 0.00 54 1010.2
20260504202517 80 203 3.5 5.2 0.00 0.00 0.00 53 1010.5
20260504201517 80 180 2.6 5.2 0.00 0.00 0.00 52 1010.7
20260504200517 80 203 4.3 6.1 0.00 0.00 0.00 53 1011.0
20260504195518 79 203 3.5 6.1 0.00 0.00 0.00 53 1011.0